This is the latest recevied weather packets stored in our database for station/object W6MAF. If no packets are shown the sender has not sent any weather packets the latest 10 day(s).
| Time | Temp. | Humidity | Pressure | Rain* | Wind** | Luminosity | Snow |
|---|---|---|---|---|---|---|---|
| 1777839916 | 18.33° C | 35% | - | 0 mm | 8.49 m/s, 232° | - | - |
| 1777839618 | 18.33° C | 34% | - | 0 mm | 9.83 m/s, 246° | - | - |
| 1777839317 | 18.33° C | 30% | - | 0 mm | 8.94 m/s, 194° | - | - |
| 1777839019 | 18.33° C | 31% | - | 0 mm | 8.94 m/s, 219° | - | - |
| 1777838722 | 17.78° C | 32% | - | 0 mm | 8.49 m/s, 235° | - | - |
| 1777838424 | 17.78° C | 33% | - | 0 mm | 8.05 m/s, 210° | - | - |
| 1777837829 | 17.22° C | 32% | - | 0 mm | 7.6 m/s, 174° | - | - |
| 1777837528 | 17.22° C | 32% | - | 0 mm | 8.49 m/s, 193° | - | - |
| 1777837230 | 17.22° C | 31% | - | 0 mm | 8.94 m/s, 224° | - | - |
| 1777836964 | 17.22° C | 31% | - | 0 mm | 6.71 m/s, 172° | - | - |
| 1777836932 | 17.22° C | 31% | - | 0 mm | 6.71 m/s, 172° | - | - |
| 1777836635 | 17.78° C | 32% | - | 0 mm | 5.81 m/s, 167° | - | - |
| 1777836374 | 17.78° C | 32% | - | 0 mm | 5.36 m/s, 194° | - | - |
| 1777836337 | 17.78° C | 32% | - | 0 mm | 5.36 m/s, 194° | - | - |
| 1777836039 | 17.22° C | 31% | - | 0 mm | 7.15 m/s, 190° | - | - |
| 1777835441 | 17.78° C | 32% | - | 0 mm | 7.6 m/s, 200° | - | - |
| 1777835143 | 17.78° C | 33% | - | 0 mm | 4.02 m/s, 232° | - | - |
| 1777834845 | 17.22° C | 33% | - | 0 mm | 4.47 m/s, 159° | - | - |
| 1777834547 | 17.22° C | 35% | - | 0 mm | 5.81 m/s, 194° | - | - |
| 1777834250 | 16.67° C | 35% | - | 0 mm | 7.6 m/s, 183° | - | - |
| 1777833949 | 16.67° C | 42% | - | 0 mm | 7.15 m/s, 186° | - | - |
| 1777833651 | 16.67° C | 47% | - | 0 mm | 4.47 m/s, 221° | - | - |
| 1777833353 | 16.11° C | 50% | - | 0 mm | 4.92 m/s, 229° | - | - |
| 1777833056 | 16.11° C | 52% | - | 0 mm | 5.81 m/s, 232° | - | - |
| 1777832758 | 16.11° C | 54% | - | 0 mm | 6.26 m/s, 224° | - | - |
* Rain latest hour (hover to see other rain measurements)
** Current wind speed in m/s (hover to see current wind gust speed)